This is the latest recevied weather packets stored in our database for station/object W9QL-13. If no packets are shown the sender has not sent any weather packets the latest 1 day(s).
| Time | Temp. | Humidity | Pressure | Rain* | Wind** | Luminosity | Snow |
|---|---|---|---|---|---|---|---|
| 1778080297 | 12.78° C | 44% | 1012.7 hPa | 7.62 mm | - | - | - |
| 1778079067 | 12.22° C | 46% | 1013 hPa | 7.62 mm | - | - | - |
| 1778078737 | 11.67° C | 57% | 1011 hPa | 7.62 mm | - | - | - |
| 1778078137 | 11.67° C | 67% | 1012.9 hPa | 0 mm | - | - | - |
| 1778077837 | 11.67° C | 66% | 1013 hPa | 0 mm | - | - | - |
| 1778077537 | 11.11° C | 88% | 1013 hPa | 0 mm | - | - | - |
| 1778077207 | 11.11° C | 61% | 1013 hPa | 0 mm | - | - | - |
| 1778075017 | 9.44° C | 60% | 1012.6 hPa | 0 mm | - | - | - |
| 1778072856 | 8.33° C | 58% | 1012.4 hPa | 0 mm | - | - | - |
| 1778070696 | 5.56° C | 82% | 1012.2 hPa | 0 mm | - | - | - |
| 1778070099 | 5° C | 86% | 1012 hPa | 0 mm | - | - | - |
| 1778069796 | 4.44° C | 88% | 1012 hPa | 0 mm | - | - | - |
| 1778069496 | 3.89° C | 88% | 1011.8 hPa | 0 mm | - | - | - |
| 1778068896 | 3.89° C | 88% | 1011.8 hPa | 0 mm | - | - | - |
| 1778068596 | 3.33° C | 88% | 1011.8 hPa | 0 mm | - | - | - |
| 1778068269 | 3.33° C | 88% | 1011.8 hPa | 0 mm | - | - | - |
| 1778067936 | 2.78° C | 88% | 1011.8 hPa | 0 mm | - | - | - |
| 1778066376 | 2.78° C | 88% | 1011.7 hPa | 0 mm | - | - | - |
| 1778066046 | 2.22° C | 88% | 1011.7 hPa | 0 mm | - | - | - |
| 1778065716 | 2.22° C | 88% | 1011.6 hPa | 0 mm | - | - | - |
| 1778065416 | 2.22° C | 88% | 1011.6 hPa | 0 mm | - | - | - |
| 1778065116 | 2.22° C | 88% | 1011.5 hPa | 0 mm | - | - | - |
| 1778064786 | 2.22° C | 87% | 1011.4 hPa | 0 mm | - | - | - |
| 1778064156 | 2.22° C | 87% | 1011.1 hPa | 0 mm | - | - | - |
| 1778063526 | 2.22° C | 86% | 1011 hPa | 0 mm | - | - | - |
* Rain latest hour (hover to see other rain measurements)
** Current wind speed in m/s (hover to see current wind gust speed)